TimePST,TemperatureF,Dew PointF,Humidity,Sea Level PressureIn,VisibilityMPH,Wind Direction,Wind SpeedMPH,Gust SpeedMPH,PrecipitationIn,Events,Conditions,WindDirDegrees,DateUTC
12:53 AM,14.0,10.9,88,30.21,4.0,Calm,Calm,-,N/A,,Clear,0,2013-12-18 08:53:00
1:53 AM,14.0,12.0,92,30.19,6.0,East,3.5,-,N/A,,Clear,90,2013-12-18 09:53:00
2:53 AM,12.9,9.0,84,30.18,5.0,Calm,Calm,-,N/A,,Clear,0,2013-12-18 10:53:00
3:53 AM,14.0,12.0,92,30.17,4.0,Calm,Calm,-,N/A,,Clear,0,2013-12-18 11:53:00
4:53 AM,10.9,9.0,92,30.18,4.0,Calm,Calm,-,N/A,,Clear,0,2013-12-18 12:53:00
5:14 AM,12.2,8.6,85,30.07,2.5,Calm,Calm,-,N/A,,Clear,0,2013-12-18 13:14:00
5:21 AM,12.2,10.4,92,30.07,5.0,Calm,Calm,-,N/A,,Clear,0,2013-12-18 13:21:00
5:53 AM,14.0,10.9,88,30.19,5.0,Calm,Calm,-,N/A,,Clear,0,2013-12-18 13:53:00
6:53 AM,16.0,12.9,88,30.17,4.0,Calm,Calm,-,N/A,,Clear,0,2013-12-18 14:53:00
7:53 AM,14.0,12.0,92,30.17,4.0,Calm,Calm,-,N/A,,Clear,0,2013-12-18 15:53:00
8:53 AM,19.0,16.0,88,30.18,10.0,Calm,Calm,-,N/A,,Clear,0,2013-12-18 16:53:00
9:53 AM,24.1,21.0,88,30.15,6.0,Calm,Calm,-,N/A,,Clear,0,2013-12-18 17:53:00
10:53 AM,28.0,24.1,85,30.12,7.0,Calm,Calm,-,N/A,,Partly Cloudy,0,2013-12-18 18:53:00
11:53 AM,32.0,25.0,75,30.06,8.0,Calm,Calm,-,N/A,,Mostly Cloudy,0,2013-12-18 19:53:00
12:53 PM,36.0,25.0,64,30.01,10.0,Calm,Calm,-,N/A,,Partly Cloudy,0,2013-12-18 20:53:00
1:53 PM,36.0,25.0,64,29.98,10.0,Calm,Calm,-,N/A,,Mostly Cloudy,0,2013-12-18 21:53:00
2:53 PM,37.0,28.0,70,29.95,9.0,Calm,Calm,-,N/A,,Overcast,0,2013-12-18 22:53:00
3:53 PM,35.1,28.9,78,29.94,10.0,North,3.5,-,N/A,,Mostly Cloudy,350,2013-12-18 23:53:00
4:53 PM,30.9,27.0,85,29.95,6.0,NW,8.1,-,N/A,,Clear,320,2013-12-19 00:53:00
5:53 PM,32.0,25.0,75,29.94,10.0,WNW,9.2,-,N/A,,Clear,300,2013-12-19 01:53:00
6:53 PM,30.0,24.1,79,29.92,10.0,North,3.5,-,N/A,,Clear,350,2013-12-19 02:53:00
7:53 PM,28.0,23.0,81,29.94,10.0,SE,3.5,-,N/A,,Mostly Cloudy,140,2013-12-19 03:53:00
8:53 PM,28.9,24.1,82,29.93,10.0,NW,8.1,-,N/A,,Overcast,310,2013-12-19 04:53:00
9:53 PM,28.9,25.0,85,29.92,10.0,West,4.6,-,N/A,,Overcast,280,2013-12-19 05:53:00
10:53 PM,28.9,25.0,85,29.91,10.0,North,9.2,-,N/A,,Mostly Cloudy,350,2013-12-19 06:53:00
11:53 PM,30.9,26.1,82,29.91,10.0,NW,10.4,-,N/A,,Overcast,320,2013-12-19 07:53:00